User: anonymous   Login
Location: 81360 Arifat, France
(43.7204°N, 2.3408°E)
Time: 13:55:13
(UTC+01:00)
Language:

Hubble Space Telescope - Orbit

View from above orbital plane
View from above orbital plane
View from above satellite
View from above satellite

Ground track
Ground track

The orbit data is extracted from the following two-line orbital elements,

1 20580U 90037B   24053.65218573  .00006002  00000-0  29400-3 0  9991
2 20580  28.4700  38.1747 0002698 213.1950 146.8473 15.16047968659475
Epoch (UTC): 22 February 2024 15:39:08
Eccentricity: 0.0002698
inclination: 28.4700°
perigee height: 516 km
apogee height: 519 km
right ascension of ascending node: 38.1747°
argument of perigee: 213.1950°
revolutions per day: 15.16047968
mean anomaly at epoch: 146.8473°
orbit number at epoch: 65947

The dashed part of the orbit path shows where the satellite is in the earth's shadow,  

DLR